CFG4PN EDDF-LOWW

Flight info

Callsign CFG4PN
Flight time 1h 1m
Altitude 31000
Route SULUS7S SULUS Z650 VEMUT/N0440F350 DCT ETVIS DCT BUDWA DCT BUDEX BUDEX2W
Aircraft A320/M-SDE3FGHIRWY/LB1

Departure

Time 2026-04-16 10:02
Airport Frankfurt Main Airport (EDDF)

Arrival

Time 2026-04-16 11:03
Airport Vienna International Airport (LOWW)
Time Latitude Longitude Altitude Speed Heading
2026-04-16 09:40 50.04389 8.56169 363 ft 0 kts 155°
2026-04-16 09:52 50.04404 8.56158 364 ft 4 kts 153°
2026-04-16 09:52 50.04428 8.56140 365 ft 4 kts 157°
2026-04-16 09:52 50.04451 8.56135 365 ft 4 kts 219°
2026-04-16 09:53 50.04461 8.56155 363 ft 0 kts 249°
2026-04-16 09:53 50.04453 8.56122 364 ft 4 kts 249°
2026-04-16 09:53 50.04451 8.56111 366 ft 0 kts 249°
2026-04-16 09:55 50.04450 8.56109 365 ft 3 kts 249°
2026-04-16 09:55 50.04401 8.56027 362 ft 19 kts 185°
2026-04-16 09:55 50.04262 8.56034 365 ft 23 kts 232°
2026-04-16 09:56 50.04200 8.55776 363 ft 27 kts 249°
2026-04-16 09:56 50.04133 8.55497 363 ft 28 kts 249°
2026-04-16 09:56 50.04064 8.55206 365 ft 29 kts 250°
2026-04-16 09:56 50.03994 8.54914 367 ft 28 kts 249°
2026-04-16 09:57 50.03925 8.54625 364 ft 29 kts 249°
2026-04-16 09:57 50.03852 8.54352 364 ft 27 kts 234°
2026-04-16 09:57 50.03785 8.54171 364 ft 14 kts 255°
2026-04-16 09:57 50.03757 8.54040 366 ft 13 kts 248°
2026-04-16 09:58 50.03720 8.53889 367 ft 17 kts 250°
2026-04-16 09:58 50.03672 8.53687 364 ft 22 kts 250°
2026-04-16 09:58 50.03610 8.53440 363 ft 27 kts 250°
2026-04-16 09:58 50.03533 8.53160 366 ft 28 kts 225°
2026-04-16 09:59 50.03411 8.52959 364 ft 26 kts 249°
2026-04-16 09:59 50.03369 8.52779 365 ft 10 kts 250°
2026-04-16 09:59 50.03362 8.52748 369 ft 0 kts 250°
2026-04-16 09:59 50.03361 8.52745 369 ft 3 kts 250°
2026-04-16 10:00 50.03344 8.52670 367 ft 7 kts 250°
2026-04-16 10:00 50.03297 8.52603 368 ft 14 kts 204°
2026-04-16 10:00 50.03252 8.52596 366 ft 0 kts 180°
2026-04-16 10:01 50.03136 8.52596 364 ft 51 kts 180°
2026-04-16 10:02 50.02537 8.52602 366 ft 117 kts 179°
2026-04-16 10:02 50.01540 8.52612 452 ft 159 kts 179°
2026-04-16 10:02 50.00435 8.52635 1160 ft 160 kts 180°
2026-04-16 10:02 49.99297 8.52637 1896 ft 172 kts 183°
2026-04-16 10:03 49.98032 8.52624 2333 ft 192 kts 181°
2026-04-16 10:03 49.96621 8.53062 2676 ft 224 kts 157°
2026-04-16 10:03 49.95387 8.54727 3151 ft 252 kts 127°
2026-04-16 10:03 49.94464 8.57142 3884 ft 265 kts 118°
2026-04-16 10:04 49.93658 8.59765 4879 ft 271 kts 116°
2026-04-16 10:04 49.92868 8.62447 5848 ft 276 kts 113°
2026-04-16 10:04 49.92485 8.65388 6742 ft 283 kts 88°
2026-04-16 10:04 49.92752 8.68394 7648 ft 286 kts 80°
2026-04-16 10:05 49.93096 8.71456 8589 ft 290 kts 79°
2026-04-16 10:05 49.93449 8.74554 9509 ft 293 kts 79°
2026-04-16 10:05 49.93806 8.77690 10406 ft 297 kts 79°
2026-04-16 10:05 49.94163 8.80972 10771 ft 320 kts 80°
2026-04-16 10:06 49.94481 8.84530 11058 ft 343 kts 82°
2026-04-16 10:06 49.94769 8.88270 11689 ft 353 kts 83°
2026-04-16 10:06 49.95044 8.92092 12405 ft 360 kts 83°
2026-04-16 10:06 49.95321 8.95985 13157 ft 365 kts 83°
2026-04-16 10:07 49.95606 8.99943 13893 ft 371 kts 83°
2026-04-16 10:07 49.95903 9.03946 14535 ft 376 kts 82°
2026-04-16 10:07 49.96209 9.08009 15172 ft 381 kts 82°
2026-04-16 10:07 49.96520 9.12116 15830 ft 385 kts 82°
2026-04-16 10:08 49.96830 9.16222 16483 ft 389 kts 83°
2026-04-16 10:08 49.97148 9.20423 17142 ft 393 kts 83°
2026-04-16 10:08 49.97470 9.24664 17799 ft 397 kts 83°
2026-04-16 10:08 49.97792 9.28951 18451 ft 401 kts 83°
2026-04-16 10:09 49.98113 9.33290 19014 ft 405 kts 83°
2026-04-16 10:09 49.98436 9.37668 19564 ft 409 kts 83°
2026-04-16 10:09 49.98758 9.42077 20121 ft 413 kts 83°
2026-04-16 10:09 49.99082 9.46537 20682 ft 417 kts 83°
2026-04-16 10:10 49.99407 9.51030 21235 ft 421 kts 83°
2026-04-16 10:10 49.99733 9.55589 21775 ft 425 kts 83°
2026-04-16 10:10 50.00059 9.60187 22304 ft 429 kts 83°
2026-04-16 10:10 50.00382 9.64752 22825 ft 433 kts 83°
2026-04-16 10:11 50.00713 9.69420 23334 ft 437 kts 83°
2026-04-16 10:11 50.01048 9.74146 23823 ft 441 kts 83°
2026-04-16 10:11 50.01380 9.78897 24241 ft 444 kts 83°
2026-04-16 10:11 50.01709 9.83679 24671 ft 446 kts 83°
2026-04-16 10:12 50.02038 9.88494 25091 ft 449 kts 83°
2026-04-16 10:12 50.02366 9.93337 25490 ft 452 kts 83°
2026-04-16 10:12 50.02699 9.98211 25878 ft 454 kts 82°
2026-04-16 10:12 50.03033 10.03108 26281 ft 457 kts 83°
2026-04-16 10:13 50.03367 10.08034 26670 ft 459 kts 82°
2026-04-16 10:13 50.03587 10.11308 26922 ft 461 kts 82°
2026-04-16 10:13 50.03920 10.16282 27293 ft 464 kts 83°
2026-04-16 10:13 50.04249 10.21283 27660 ft 466 kts 83°
2026-04-16 10:14 50.04578 10.26318 28021 ft 468 kts 83°
2026-04-16 10:14 50.05014 10.33019 28499 ft 471 kts 83°
2026-04-16 10:14 50.05237 10.36458 28734 ft 473 kts 82°
2026-04-16 10:14 50.05565 10.41556 29071 ft 475 kts 82°
2026-04-16 10:15 50.05894 10.46683 29398 ft 477 kts 82°
2026-04-16 10:15 50.06220 10.51827 29704 ft 479 kts 83°
2026-04-16 10:15 50.06540 10.56957 29997 ft 482 kts 83°
2026-04-16 10:15 50.06861 10.62151 30297 ft 484 kts 83°
2026-04-16 10:16 50.06957 10.67402 30531 ft 487 kts 93°
2026-04-16 10:16 50.06281 10.72568 30759 ft 490 kts 112°
2026-04-16 10:16 50.04604 10.77171 30972 ft 490 kts 127°
2026-04-16 10:16 50.02754 10.81624 31182 ft 491 kts 120°
2026-04-16 10:17 49.99732 10.91261 31230 ft 501 kts 113°
2026-04-16 10:17 49.97080 11.01350 31232 ft 505 kts 112°
2026-04-16 10:18 49.94370 11.11436 31229 ft 506 kts 114°
2026-04-16 10:18 49.91497 11.21401 31231 ft 505 kts 115°
2026-04-16 10:19 49.88557 11.31311 31229 ft 505 kts 115°
2026-04-16 10:19 49.85661 11.41181 31233 ft 505 kts 114°
2026-04-16 10:20 49.82778 11.51095 31232 ft 505 kts 114°
2026-04-16 10:20 49.79889 11.60989 31229 ft 504 kts 114°
2026-04-16 10:21 49.76985 11.70852 31226 ft 503 kts 114°
2026-04-16 10:21 49.74073 11.80702 31218 ft 503 kts 114°
2026-04-16 10:22 49.71153 11.90541 31222 ft 503 kts 114°
2026-04-16 10:22 49.68228 12.00346 31222 ft 502 kts 114°
2026-04-16 10:23 49.65288 12.10133 31225 ft 502 kts 115°
2026-04-16 10:23 49.62372 12.19843 31224 ft 502 kts 114°
2026-04-16 10:24 49.59413 12.29654 31229 ft 501 kts 114°
2026-04-16 10:24 49.56480 12.39337 31234 ft 501 kts 115°
2026-04-16 10:25 49.53526 12.49048 31240 ft 501 kts 115°
2026-04-16 10:25 49.50571 12.58746 31236 ft 500 kts 114°
2026-04-16 10:26 49.47602 12.68443 31237 ft 500 kts 115°
2026-04-16 10:26 49.44628 12.78100 31241 ft 499 kts 114°
2026-04-16 10:27 49.41671 12.87676 31246 ft 499 kts 115°
2026-04-16 10:27 49.38686 12.97301 31251 ft 498 kts 114°
2026-04-16 10:28 49.35696 13.06903 31253 ft 498 kts 115°
2026-04-16 10:28 49.32703 13.16471 31249 ft 497 kts 115°
2026-04-16 10:29 49.29702 13.26013 31253 ft 496 kts 115°
2026-04-16 10:29 49.26696 13.35538 31258 ft 496 kts 114°
2026-04-16 10:30 49.23719 13.44979 31259 ft 495 kts 114°
2026-04-16 10:30 49.20719 13.54445 31267 ft 494 kts 115°
2026-04-16 10:31 49.17706 13.63874 31266 ft 493 kts 115°
2026-04-16 10:31 49.14656 13.73273 31263 ft 493 kts 115°
2026-04-16 10:32 49.11605 13.82635 31263 ft 492 kts 115°
2026-04-16 10:32 49.08543 13.91995 31259 ft 492 kts 115°
2026-04-16 10:33 49.05490 14.01316 31255 ft 491 kts 115°
2026-04-16 10:33 49.02430 14.10639 31260 ft 491 kts 115°
2026-04-16 10:34 48.99385 14.19881 31259 ft 491 kts 116°
2026-04-16 10:34 48.96302 14.29168 31264 ft 491 kts 116°
2026-04-16 10:35 48.92663 14.37941 31262 ft 491 kts 127°
2026-04-16 10:35 48.88543 14.46078 30946 ft 472 kts 127°
2026-04-16 10:36 48.86565 14.49983 30697 ft 462 kts 127°
2026-04-16 10:36 48.84612 14.53834 30388 ft 457 kts 128°
2026-04-16 10:36 48.82675 14.57652 29650 ft 454 kts 128°
2026-04-16 10:36 48.80762 14.61426 29009 ft 449 kts 128°
2026-04-16 10:37 48.78866 14.65168 28355 ft 445 kts 128°
2026-04-16 10:37 48.77009 14.68827 27734 ft 441 kts 128°
2026-04-16 10:37 48.75147 14.72483 27107 ft 438 kts 128°
2026-04-16 10:37 48.73291 14.76121 26514 ft 434 kts 128°
2026-04-16 10:38 48.71450 14.79713 25919 ft 430 kts 129°
2026-04-16 10:38 48.69621 14.83275 25338 ft 427 kts 129°
2026-04-16 10:38 48.67807 14.86811 24773 ft 423 kts 129°
2026-04-16 10:38 48.66007 14.90314 24214 ft 420 kts 129°
2026-04-16 10:39 48.64214 14.93793 23635 ft 417 kts 129°
2026-04-16 10:39 48.62434 14.97240 23099 ft 413 kts 129°
2026-04-16 10:39 48.60685 15.00651 22615 ft 408 kts 127°
2026-04-16 10:39 48.59220 15.04292 22120 ft 405 kts 116°
2026-04-16 10:40 48.58196 15.08225 21665 ft 401 kts 107°
2026-04-16 10:40 48.57507 15.12221 21217 ft 396 kts 104°
2026-04-16 10:40 48.56822 15.16234 20738 ft 393 kts 105°
2026-04-16 10:40 48.56133 15.20220 20264 ft 390 kts 105°
2026-04-16 10:41 48.55449 15.24162 19784 ft 387 kts 105°
2026-04-16 10:41 48.54767 15.28076 19304 ft 385 kts 105°
2026-04-16 10:41 48.54086 15.31973 18811 ft 383 kts 105°
2026-04-16 10:41 48.53410 15.35847 18283 ft 381 kts 105°
2026-04-16 10:42 48.52739 15.39697 17766 ft 378 kts 105°
2026-04-16 10:42 48.52108 15.43534 17273 ft 375 kts 101°
2026-04-16 10:42 48.51815 15.47426 17019 ft 374 kts 94°
2026-04-16 10:42 48.51607 15.51337 16830 ft 374 kts 95°
2026-04-16 10:43 48.51391 15.55200 16615 ft 374 kts 95°
2026-04-16 10:43 48.51166 15.59098 16404 ft 373 kts 95°
2026-04-16 10:43 48.50941 15.62984 16190 ft 371 kts 95°
2026-04-16 10:43 48.50717 15.66868 15969 ft 370 kts 95°
2026-04-16 10:44 48.50493 15.70725 15759 ft 369 kts 95°
2026-04-16 10:44 48.50269 15.74565 15553 ft 368 kts 95°
2026-04-16 10:44 48.50046 15.78408 15340 ft 366 kts 95°
2026-04-16 10:44 48.49823 15.82229 15130 ft 365 kts 95°
2026-04-16 10:45 48.49601 15.86038 14924 ft 364 kts 95°
2026-04-16 10:45 48.49376 15.89832 14710 ft 363 kts 95°
2026-04-16 10:45 48.49147 15.93627 14502 ft 362 kts 95°
2026-04-16 10:45 48.48916 15.97403 14289 ft 361 kts 95°
2026-04-16 10:46 48.48684 16.01170 14085 ft 360 kts 95°
2026-04-16 10:46 48.48456 16.04875 13870 ft 359 kts 95°
2026-04-16 10:46 48.48228 16.08626 13652 ft 358 kts 95°
2026-04-16 10:46 48.48017 16.12362 13448 ft 357 kts 94°
2026-04-16 10:47 48.47856 16.16086 13227 ft 355 kts 94°
2026-04-16 10:47 48.47723 16.19799 13028 ft 354 kts 93°
2026-04-16 10:47 48.47599 16.23502 12824 ft 353 kts 93°
2026-04-16 10:47 48.47475 16.27188 12614 ft 352 kts 93°
2026-04-16 10:48 48.47341 16.30870 12405 ft 351 kts 93°
2026-04-16 10:48 48.47199 16.34534 12199 ft 350 kts 93°
2026-04-16 10:48 48.47052 16.38191 11988 ft 349 kts 94°
2026-04-16 10:48 48.46905 16.41784 11789 ft 348 kts 94°
2026-04-16 10:49 48.46757 16.45413 11587 ft 346 kts 94°
2026-04-16 10:49 48.46546 16.49019 11376 ft 345 kts 101°
2026-04-16 10:49 48.45773 16.52417 11175 ft 343 kts 118°
2026-04-16 10:49 48.44392 16.55319 10979 ft 340 kts 135°
2026-04-16 10:50 48.42544 16.57501 10774 ft 334 kts 152°
2026-04-16 10:50 48.40452 16.58765 10643 ft 318 kts 166°
2026-04-16 10:50 48.38353 16.59636 10519 ft 306 kts 166°
2026-04-16 10:50 48.36336 16.60485 10286 ft 298 kts 166°
2026-04-16 10:51 48.34354 16.61323 10005 ft 293 kts 166°
2026-04-16 10:51 48.32403 16.62147 9842 ft 291 kts 166°
2026-04-16 10:51 48.30455 16.62969 9669 ft 290 kts 165°
2026-04-16 10:51 48.28520 16.63785 9508 ft 289 kts 165°
2026-04-16 10:52 48.26584 16.64600 9344 ft 288 kts 165°
2026-04-16 10:52 48.24681 16.65403 9182 ft 287 kts 165°
2026-04-16 10:52 48.22756 16.66214 9015 ft 287 kts 165°
2026-04-16 10:52 48.20839 16.67021 8861 ft 286 kts 165°
2026-04-16 10:53 48.18926 16.67823 8697 ft 285 kts 165°
2026-04-16 10:53 48.17017 16.68622 8546 ft 285 kts 165°
2026-04-16 10:53 48.15111 16.69418 8386 ft 284 kts 165°
2026-04-16 10:53 48.13212 16.70211 8224 ft 283 kts 165°
2026-04-16 10:54 48.11316 16.71006 8067 ft 282 kts 165°
2026-04-16 10:54 48.09426 16.71797 7904 ft 281 kts 165°
2026-04-16 10:54 48.07543 16.72583 7755 ft 281 kts 165°
2026-04-16 10:54 48.05662 16.73368 7597 ft 280 kts 165°
2026-04-16 10:55 48.03809 16.74138 7444 ft 279 kts 165°
2026-04-16 10:55 48.01936 16.74915 7270 ft 278 kts 165°
2026-04-16 10:55 48.00072 16.75687 7122 ft 278 kts 165°
2026-04-16 10:55 47.98213 16.76455 6974 ft 277 kts 165°
2026-04-16 10:56 47.96359 16.77216 6818 ft 276 kts 165°
2026-04-16 10:56 47.94508 16.77980 6660 ft 275 kts 165°
2026-04-16 10:56 47.92665 16.78741 6474 ft 274 kts 165°
2026-04-16 10:56 47.90827 16.79495 6303 ft 274 kts 166°
2026-04-16 10:57 47.88947 16.79622 6132 ft 272 kts 192°
2026-04-16 10:57 47.87252 16.78444 5929 ft 272 kts 219°
2026-04-16 10:57 47.86112 16.76200 5297 ft 276 kts 250°
2026-04-16 10:57 47.85594 16.73456 4706 ft 278 kts 259°
2026-04-16 10:58 47.85702 16.70635 4271 ft 272 kts 293°
2026-04-16 10:58 47.86832 16.68536 4108 ft 255 kts 329°
2026-04-16 10:58 47.88433 16.67641 3993 ft 241 kts 346°
2026-04-16 10:58 47.89994 16.67049 3880 ft 229 kts 346°
2026-04-16 10:59 47.91524 16.66430 3780 ft 226 kts 345°
2026-04-16 10:59 47.93036 16.65798 3668 ft 225 kts 345°
2026-04-16 10:59 47.94532 16.65169 3538 ft 221 kts 345°
2026-04-16 10:59 47.96000 16.64553 3275 ft 218 kts 345°
2026-04-16 11:00 47.97446 16.63944 2992 ft 210 kts 345°
2026-04-16 11:00 47.98811 16.63370 2726 ft 195 kts 345°
2026-04-16 11:00 48.00044 16.62851 2459 ft 173 kts 345°
2026-04-16 11:00 48.01120 16.62398 2248 ft 152 kts 346°
2026-04-16 11:01 48.02098 16.61986 2045 ft 140 kts 346°
2026-04-16 11:01 48.03004 16.61606 1839 ft 134 kts 345°
2026-04-16 11:01 48.03887 16.61220 1632 ft 132 kts 343°
2026-04-16 11:01 48.04763 16.60851 1483 ft 131 kts 345°
2026-04-16 11:02 48.05633 16.60478 1278 ft 129 kts 343°
2026-04-16 11:02 48.06501 16.60115 1113 ft 129 kts 344°
2026-04-16 11:02 48.07373 16.59750 955 ft 130 kts 342°
2026-04-16 11:02 48.08241 16.59383 782 ft 129 kts 343°
2026-04-16 11:03 48.09099 16.59027 641 ft 128 kts 343°
2026-04-16 11:03 48.09881 16.58703 618 ft 97 kts 345°
2026-04-16 11:03 48.10547 16.58421 616 ft 41 kts 345°
2026-04-16 11:04 48.10769 16.58224 617 ft 35 kts 315°
2026-04-16 11:04 48.10902 16.58023 614 ft 20 kts 313°
2026-04-16 11:04 48.10967 16.57919 618 ft 9 kts 313°
2026-04-16 11:04 48.11043 16.57806 610 ft 21 kts 324°
2026-04-16 11:05 48.11213 16.57724 613 ft 30 kts 343°
2026-04-16 11:05 48.11400 16.57643 612 ft 28 kts 344°
2026-04-16 11:05 48.11590 16.57563 610 ft 29 kts 344°
2026-04-16 11:05 48.11780 16.57482 619 ft 26 kts 338°
2026-04-16 11:06 48.11816 16.57333 613 ft 14 kts 292°
2026-04-16 11:06 48.11854 16.57182 610 ft 17 kts 271°
2026-04-16 11:06 48.11896 16.57017 614 ft 18 kts 295°
2026-04-16 11:06 48.11916 16.56914 617 ft 4 kts 223°
2026-04-16 11:07 48.11881 16.56890 610 ft 7 kts 207°
2026-04-16 11:07 48.11870 16.56882 610 ft 1 kts 206°
2026-04-16 11:07 48.11868 16.56880 610 ft 1 kts 206°
2026-04-16 11:07 48.11866 16.56880 610 ft 0 kts 206°
2026-04-16 11:12 48.11866 16.56879 610 ft 0 kts 206°